Terug naar catalogus

STARLINK-5850

ActiefCommunicatieVLEO
NORAD 57049·PAYLOAD·🇺🇸 United States

Gelanceerd Jun 22, 2023 vanaf Vandenberg Space Force Base

Loading…

Volgende Passages (komende 24 uur)

TLE

VersSource: CelesTrak SupGP

Epoch: Sep 14, 2026, 22:15 UTC

1 57049C 23088B   26257.92756944  .00003901  00000+0  14141-3 0  2577
2 57049  43.0023 122.2688 0001867 263.1691 334.3616 15.27550803    11

Volg STARLINK-5850 in realtime met AllMySat

Download on the App Store